Location: College Park
(38.9810°N, 76.9370°W)
Time: 17:25:14
(UTC-05:00)

OTV 5 (USA 277) - Pass Details

Date: 18 November 2017
Orbit: 404 x 417 km, 43.0° (Epoch: 07 September)

Event Time Altitude Azimuth Distance (km) Brightness Sun altitude
Exits shadow 05:04:30 53° 44° (NE) 499 ? -21.2°
Drops below altitude 10° 05:07:24 10° 95° (E) 1,453 ? -20.7°
Sets 05:09:31 0° 99° (E) 2,310 ? -20.3°
